SAS2862 EKCH-ENBR

Flight info

Callsign SAS2862
Flight time 1h 9m
Altitude 36000
Route GOLGA DCT RETKA DCT PESUR
Aircraft A319/M-SDE3FGHIRWY/LB1

Departure

Time 2026-04-26 06:26
Airport Copenhagen Kastrup Airport (EKCH)

Arrival

Time 2026-04-26 07:36
Airport Bergen Airport, Flesland (ENBR)
Time Latitude Longitude Altitude Speed Heading
2026-04-26 06:03 55.62723 12.64095 -3 ft 0 kts 32°
2026-04-26 06:16 55.62705 12.64074 24 ft 4 kts 36°
2026-04-26 06:16 55.62687 12.64052 24 ft 4 kts 25°
2026-04-26 06:16 55.62664 12.64045 27 ft 4 kts 332°
2026-04-26 06:16 55.62652 12.64062 24 ft 0 kts 303°
2026-04-26 06:17 55.62664 12.64029 25 ft 4 kts 303°
2026-04-26 06:17 55.62671 12.64012 25 ft 0 kts 303°
2026-04-26 06:19 55.62671 12.64011 25 ft 1 kts 303°
2026-04-26 06:20 55.62680 12.63987 24 ft 4 kts 303°
2026-04-26 06:20 55.62700 12.63929 24 ft 7 kts 295°
2026-04-26 06:20 55.62678 12.63854 25 ft 9 kts 197°
2026-04-26 06:20 55.62628 12.63926 24 ft 11 kts 122°
2026-04-26 06:21 55.62578 12.64063 24 ft 16 kts 123°
2026-04-26 06:21 55.62513 12.64239 24 ft 18 kts 123°
2026-04-26 06:21 55.62431 12.64430 24 ft 21 kts 127°
2026-04-26 06:21 55.62346 12.64651 24 ft 23 kts 123°
2026-04-26 06:22 55.62280 12.64785 24 ft 13 kts 159°
2026-04-26 06:22 55.62190 12.64748 25 ft 15 kts 212°
2026-04-26 06:22 55.62097 12.64643 26 ft 17 kts 213°
2026-04-26 06:22 55.61986 12.64522 24 ft 20 kts 202°
2026-04-26 06:23 55.61843 12.64527 25 ft 22 kts 170°
2026-04-26 06:23 55.61686 12.64553 24 ft 24 kts 192°
2026-04-26 06:23 55.61536 12.64403 24 ft 26 kts 213°
2026-04-26 06:23 55.61378 12.64220 24 ft 28 kts 213°
2026-04-26 06:24 55.61206 12.64022 26 ft 31 kts 213°
2026-04-26 06:24 55.61084 12.63884 25 ft 32 kts 213°
2026-04-26 06:24 55.60907 12.63682 24 ft 26 kts 213°
2026-04-26 06:24 55.60782 12.63614 24 ft 15 kts 153°
2026-04-26 06:25 55.60689 12.63803 26 ft 12 kts 129°
2026-04-26 06:25 55.60700 12.63903 27 ft 9 kts 40°
2026-04-26 06:25 55.60706 12.63913 28 ft 0 kts 41°
2026-04-26 06:25 55.60890 12.64197 25 ft 66 kts 41°
2026-04-26 06:26 55.61387 12.64966 25 ft 122 kts 41°
2026-04-26 06:26 55.61882 12.65725 46 ft 153 kts 39°
2026-04-26 06:26 55.62673 12.66960 658 ft 152 kts 38°
2026-04-26 06:26 55.63475 12.68208 1324 ft 155 kts 37°
2026-04-26 06:27 55.64297 12.69483 1958 ft 161 kts 37°
2026-04-26 06:27 55.65190 12.70769 2518 ft 168 kts 25°
2026-04-26 06:27 55.66323 12.70972 3035 ft 177 kts 344°
2026-04-26 06:27 55.67548 12.70215 3562 ft 196 kts 346°
2026-04-26 06:28 55.69001 12.69842 4061 ft 221 kts 354°
2026-04-26 06:28 55.70567 12.69671 4828 ft 234 kts 356°
2026-04-26 06:28 55.72209 12.69546 5817 ft 238 kts 356°
2026-04-26 06:28 55.73875 12.69420 6795 ft 242 kts 356°
2026-04-26 06:29 55.75571 12.69251 7728 ft 245 kts 353°
2026-04-26 06:29 55.77182 12.68263 8668 ft 249 kts 329°
2026-04-26 06:29 55.78499 12.66225 9661 ft 252 kts 319°
2026-04-26 06:29 55.79762 12.64043 10569 ft 257 kts 319°
2026-04-26 06:30 55.81100 12.61729 10866 ft 280 kts 319°
2026-04-26 06:30 55.82530 12.59254 11372 ft 292 kts 319°
2026-04-26 06:30 55.83994 12.56721 12137 ft 295 kts 319°
2026-04-26 06:30 55.85466 12.54170 12965 ft 296 kts 319°
2026-04-26 06:31 55.86939 12.51607 13788 ft 297 kts 319°
2026-04-26 06:31 55.88416 12.49027 14482 ft 299 kts 319°
2026-04-26 06:31 55.89911 12.46410 15125 ft 302 kts 319°
2026-04-26 06:31 55.91414 12.43786 15790 ft 304 kts 319°
2026-04-26 06:32 55.92933 12.41136 16461 ft 306 kts 319°
2026-04-26 06:32 55.94458 12.38474 17147 ft 308 kts 319°
2026-04-26 06:32 55.95989 12.35798 17859 ft 310 kts 319°
2026-04-26 06:32 55.97529 12.33096 18566 ft 311 kts 319°
2026-04-26 06:33 55.99073 12.30387 19166 ft 312 kts 318°
2026-04-26 06:33 56.00626 12.27658 19745 ft 314 kts 318°
2026-04-26 06:33 56.02171 12.24937 20324 ft 316 kts 318°
2026-04-26 06:33 56.03765 12.22131 20913 ft 319 kts 318°
2026-04-26 06:34 56.05349 12.19338 21485 ft 321 kts 318°
2026-04-26 06:34 56.06925 12.16559 22038 ft 323 kts 318°
2026-04-26 06:34 56.08529 12.13721 22592 ft 325 kts 318°
2026-04-26 06:34 56.10144 12.10862 23142 ft 328 kts 318°
2026-04-26 06:35 56.11774 12.07981 23666 ft 330 kts 318°
2026-04-26 06:35 56.13413 12.05084 24126 ft 332 kts 318°
2026-04-26 06:35 56.15085 12.02126 24491 ft 336 kts 317°
2026-04-26 06:35 56.16735 11.99201 24857 ft 339 kts 317°
2026-04-26 06:36 56.18419 11.96207 25250 ft 342 kts 316°
2026-04-26 06:36 56.20115 11.93182 25675 ft 344 kts 316°
2026-04-26 06:36 56.21816 11.90143 26089 ft 346 kts 316°
2026-04-26 06:36 56.23528 11.87083 26497 ft 349 kts 316°
2026-04-26 06:37 56.25253 11.83996 26901 ft 351 kts 316°
2026-04-26 06:37 56.26985 11.80890 27303 ft 353 kts 316°
2026-04-26 06:37 56.28728 11.77757 27725 ft 355 kts 316°
2026-04-26 06:37 56.30480 11.74609 28172 ft 356 kts 316°
2026-04-26 06:38 56.32237 11.71447 28586 ft 358 kts 315°
2026-04-26 06:38 56.34105 11.68475 28957 ft 360 kts 322°
2026-04-26 06:38 56.36149 11.65835 29343 ft 363 kts 323°
2026-04-26 06:38 56.38209 11.63184 29719 ft 365 kts 323°
2026-04-26 06:39 56.40289 11.60511 30079 ft 367 kts 323°
2026-04-26 06:39 56.42374 11.57825 30415 ft 370 kts 323°
2026-04-26 06:39 56.44473 11.55113 30625 ft 374 kts 322°
2026-04-26 06:39 56.46597 11.52360 30861 ft 377 kts 322°
2026-04-26 06:40 56.48738 11.49581 31130 ft 379 kts 322°
2026-04-26 06:40 56.50886 11.46787 31408 ft 381 kts 322°
2026-04-26 06:40 56.53045 11.43973 31683 ft 383 kts 322°
2026-04-26 06:40 56.55213 11.41147 32026 ft 383 kts 322°
2026-04-26 06:41 56.57370 11.38333 32433 ft 382 kts 322°
2026-04-26 06:41 56.59528 11.35515 32867 ft 381 kts 322°
2026-04-26 06:41 56.61670 11.32719 33310 ft 379 kts 322°
2026-04-26 06:41 56.63802 11.29927 33747 ft 377 kts 322°
2026-04-26 06:42 56.65927 11.27133 34163 ft 376 kts 322°
2026-04-26 06:42 56.68043 11.24348 34529 ft 375 kts 322°
2026-04-26 06:42 56.70156 11.21563 34864 ft 375 kts 322°
2026-04-26 06:42 56.72261 11.18781 35177 ft 375 kts 322°
2026-04-26 06:43 56.74371 11.15990 35478 ft 375 kts 322°
2026-04-26 06:43 56.76484 11.13192 35769 ft 375 kts 322°
2026-04-26 06:43 56.78596 11.10397 36059 ft 375 kts 322°
2026-04-26 06:43 56.80718 11.07592 36250 ft 376 kts 323°
2026-04-26 06:44 56.82833 11.04797 36298 ft 375 kts 323°
2026-04-26 06:44 56.87037 10.99206 36296 ft 374 kts 322°
2026-04-26 06:45 56.91234 10.93589 36308 ft 373 kts 322°
2026-04-26 06:45 56.95416 10.88001 36293 ft 372 kts 322°
2026-04-26 06:46 56.99592 10.82403 36294 ft 372 kts 322°
2026-04-26 06:46 57.03744 10.76824 36291 ft 372 kts 322°
2026-04-26 06:47 57.07940 10.71157 36292 ft 372 kts 322°
2026-04-26 06:47 57.12111 10.65515 36263 ft 373 kts 322°
2026-04-26 06:48 57.16294 10.59839 36267 ft 374 kts 322°
2026-04-26 06:48 57.20485 10.54126 36270 ft 375 kts 322°
2026-04-26 06:49 57.24682 10.48394 36314 ft 375 kts 322°
2026-04-26 06:49 57.28864 10.42660 36313 ft 374 kts 322°
2026-04-26 06:50 57.33046 10.36927 36305 ft 374 kts 322°
2026-04-26 06:50 57.37213 10.31187 36305 ft 373 kts 322°
2026-04-26 06:51 57.41384 10.25428 36303 ft 373 kts 322°
2026-04-26 06:51 57.47629 10.16757 36273 ft 374 kts 321°
2026-04-26 06:52 57.51794 10.10957 36273 ft 376 kts 321°
2026-04-26 06:52 57.55988 10.05114 36303 ft 376 kts 321°
2026-04-26 06:53 57.60166 9.99267 36304 ft 375 kts 321°
2026-04-26 06:53 57.64335 9.93416 36302 ft 375 kts 321°
2026-04-26 06:54 57.68477 9.87593 36302 ft 375 kts 321°
2026-04-26 06:54 57.72643 9.81716 36300 ft 375 kts 321°
2026-04-26 06:55 57.76805 9.75829 36298 ft 375 kts 321°
2026-04-26 06:55 57.80971 9.69908 36265 ft 376 kts 321°
2026-04-26 06:56 57.85149 9.63958 36298 ft 378 kts 321°
2026-04-26 06:56 57.89339 9.57985 36297 ft 378 kts 321°
2026-04-26 06:57 57.93521 9.51980 36302 ft 378 kts 321°
2026-04-26 06:57 57.97700 9.45958 36301 ft 378 kts 321°
2026-04-26 06:58 58.02077 9.40438 36298 ft 379 kts 326°
2026-04-26 06:58 58.06562 9.35182 36298 ft 380 kts 326°
2026-04-26 06:59 58.11049 9.29906 36297 ft 379 kts 325°
2026-04-26 06:59 58.15519 9.24605 36289 ft 379 kts 325°
2026-04-26 07:00 58.20003 9.19278 36282 ft 381 kts 325°
2026-04-26 07:00 58.24490 9.13942 36280 ft 381 kts 325°
2026-04-26 07:01 58.28993 9.08583 36286 ft 382 kts 325°
2026-04-26 07:01 58.33495 9.03199 36285 ft 382 kts 325°
2026-04-26 07:02 58.37996 8.97805 36288 ft 383 kts 325°
2026-04-26 07:02 58.42503 8.92374 36291 ft 383 kts 325°
2026-04-26 07:03 58.47003 8.86929 36297 ft 383 kts 325°
2026-04-26 07:03 58.51514 8.81474 36294 ft 383 kts 325°
2026-04-26 07:04 58.56016 8.76009 36263 ft 384 kts 324°
2026-04-26 07:04 58.60529 8.70508 36267 ft 385 kts 324°
2026-04-26 07:05 58.65058 8.64969 36270 ft 387 kts 324°
2026-04-26 07:05 58.69597 8.59398 36274 ft 387 kts 324°
2026-04-26 07:06 58.74139 8.53815 36276 ft 388 kts 324°
2026-04-26 07:06 58.78690 8.48216 36307 ft 388 kts 324°
2026-04-26 07:07 58.83230 8.42604 36305 ft 388 kts 324°
2026-04-26 07:07 58.87772 8.36982 36301 ft 387 kts 324°
2026-04-26 07:08 58.92300 8.31332 36296 ft 387 kts 324°
2026-04-26 07:08 58.96819 8.25660 36267 ft 387 kts 324°
2026-04-26 07:09 59.00587 8.20931 36267 ft 389 kts 324°
2026-04-26 07:09 59.05136 8.15215 36276 ft 390 kts 324°
2026-04-26 07:11 59.16520 8.00847 36292 ft 390 kts 324°
2026-04-26 07:11 59.21064 7.95066 36295 ft 390 kts 324°
2026-04-26 07:12 59.25604 7.89269 36294 ft 390 kts 324°
2026-04-26 07:12 59.30147 7.83461 36159 ft 391 kts 324°
2026-04-26 07:12 59.32447 7.80510 35432 ft 396 kts 324°
2026-04-26 07:13 59.34755 7.77546 34743 ft 399 kts 324°
2026-04-26 07:13 59.37078 7.74556 34192 ft 398 kts 323°
2026-04-26 07:13 59.39372 7.71598 33755 ft 392 kts 324°
2026-04-26 07:13 59.41637 7.68676 33328 ft 386 kts 324°
2026-04-26 07:14 59.43861 7.65805 32892 ft 380 kts 324°
2026-04-26 07:14 59.46053 7.62964 32465 ft 375 kts 324°
2026-04-26 07:14 59.48214 7.60161 32035 ft 370 kts 324°
2026-04-26 07:14 59.50345 7.57392 31619 ft 365 kts 323°
2026-04-26 07:15 59.52447 7.54653 31217 ft 360 kts 323°
2026-04-26 07:15 59.54528 7.51936 30804 ft 356 kts 323°
2026-04-26 07:15 59.56551 7.49292 30402 ft 352 kts 323°
2026-04-26 07:15 59.58610 7.46603 29966 ft 348 kts 323°
2026-04-26 07:16 59.60614 7.43990 29561 ft 343 kts 323°
2026-04-26 07:16 59.62570 7.41436 29189 ft 338 kts 323°
2026-04-26 07:16 59.64522 7.38882 28801 ft 334 kts 324°
2026-04-26 07:16 59.66467 7.36330 28429 ft 330 kts 323°
2026-04-26 07:17 59.68347 7.33855 28098 ft 327 kts 324°
2026-04-26 07:17 59.70253 7.31335 27705 ft 324 kts 324°
2026-04-26 07:17 59.72083 7.28882 27276 ft 321 kts 321°
2026-04-26 07:17 59.73612 7.25700 26384 ft 322 kts 303°
2026-04-26 07:18 59.74571 7.21668 25520 ft 325 kts 295°
2026-04-26 07:18 59.75417 7.17514 24679 ft 326 kts 294°
2026-04-26 07:18 59.76258 7.13322 23851 ft 328 kts 294°
2026-04-26 07:18 59.77101 7.09115 22874 ft 328 kts 294°
2026-04-26 07:19 59.77945 7.04911 21946 ft 328 kts 294°
2026-04-26 07:19 59.78788 7.00719 21048 ft 327 kts 294°
2026-04-26 07:19 59.79623 6.96551 20470 ft 318 kts 294°
2026-04-26 07:19 59.80417 6.92561 20079 ft 304 kts 294°
2026-04-26 07:20 59.81177 6.88745 19709 ft 291 kts 294°
2026-04-26 07:20 59.81909 6.85071 19363 ft 285 kts 294°
2026-04-26 07:20 59.82642 6.81409 18998 ft 284 kts 294°
2026-04-26 07:20 59.83372 6.77776 18649 ft 281 kts 294°
2026-04-26 07:21 59.84092 6.74184 18271 ft 279 kts 295°
2026-04-26 07:21 59.84808 6.70601 17917 ft 277 kts 294°
2026-04-26 07:21 59.85513 6.67045 17575 ft 276 kts 294°
2026-04-26 07:21 59.86214 6.63494 17234 ft 275 kts 294°
2026-04-26 07:22 59.86913 6.59950 16897 ft 274 kts 294°
2026-04-26 07:22 59.87608 6.56422 16521 ft 274 kts 294°
2026-04-26 07:22 59.88306 6.52882 16202 ft 275 kts 294°
2026-04-26 07:22 59.89005 6.49327 15861 ft 275 kts 294°
2026-04-26 07:23 59.89698 6.45790 15521 ft 274 kts 294°
2026-04-26 07:23 59.90389 6.42255 15177 ft 273 kts 294°
2026-04-26 07:23 59.91079 6.38730 14835 ft 273 kts 294°
2026-04-26 07:23 59.91768 6.35212 14495 ft 272 kts 294°
2026-04-26 07:24 59.92451 6.31709 14154 ft 271 kts 294°
2026-04-26 07:24 59.93132 6.28219 13794 ft 270 kts 294°
2026-04-26 07:24 59.93806 6.24747 13442 ft 268 kts 294°
2026-04-26 07:24 59.94475 6.21288 13104 ft 267 kts 294°
2026-04-26 07:25 59.95133 6.17882 12773 ft 266 kts 294°
2026-04-26 07:25 59.95797 6.14442 12436 ft 265 kts 294°
2026-04-26 07:25 59.96458 6.11018 12117 ft 265 kts 293°
2026-04-26 07:25 59.97119 6.07591 11786 ft 263 kts 294°
2026-04-26 07:26 59.97775 6.04190 11448 ft 262 kts 294°
2026-04-26 07:26 59.98427 6.00789 11128 ft 262 kts 294°
2026-04-26 07:26 59.99073 5.97406 10805 ft 260 kts 294°
2026-04-26 07:26 59.99716 5.94043 10489 ft 259 kts 294°
2026-04-26 07:27 60.00369 5.90624 10396 ft 262 kts 293°
2026-04-26 07:27 60.01018 5.87220 10294 ft 263 kts 293°
2026-04-26 07:27 60.01676 5.83768 9862 ft 268 kts 293°
2026-04-26 07:27 60.02322 5.80356 9539 ft 265 kts 293°
2026-04-26 07:28 60.02977 5.76871 9116 ft 264 kts 293°
2026-04-26 07:28 60.03615 5.73483 8729 ft 264 kts 293°
2026-04-26 07:28 60.04259 5.70039 8322 ft 264 kts 292°
2026-04-26 07:28 60.04852 5.66554 7929 ft 264 kts 290°
2026-04-26 07:29 60.05408 5.63054 7565 ft 264 kts 290°
2026-04-26 07:29 60.05952 5.59542 7198 ft 264 kts 289°
2026-04-26 07:29 60.06495 5.56027 6844 ft 264 kts 289°
2026-04-26 07:29 60.07041 5.52505 6455 ft 264 kts 289°
2026-04-26 07:30 60.07590 5.48996 6069 ft 264 kts 289°
2026-04-26 07:30 60.08134 5.45512 5573 ft 263 kts 289°
2026-04-26 07:30 60.08684 5.41978 4851 ft 266 kts 288°
2026-04-26 07:30 60.09231 5.38454 4268 ft 264 kts 288°
2026-04-26 07:31 60.09773 5.34975 3787 ft 258 kts 288°
2026-04-26 07:31 60.10306 5.31580 3311 ft 253 kts 290°
2026-04-26 07:31 60.11199 5.28730 3019 ft 233 kts 322°
2026-04-26 07:31 60.12588 5.27405 2998 ft 212 kts 349°
2026-04-26 07:32 60.13987 5.26937 2999 ft 199 kts 351°
2026-04-26 07:32 60.15327 5.26495 2847 ft 191 kts 351°
2026-04-26 07:32 60.16619 5.26066 2615 ft 186 kts 351°
2026-04-26 07:32 60.17884 5.25645 2363 ft 183 kts 351°
2026-04-26 07:33 60.19113 5.25235 2115 ft 176 kts 351°
2026-04-26 07:33 60.20288 5.24843 1857 ft 166 kts 351°
2026-04-26 07:33 60.21385 5.24476 1633 ft 154 kts 351°
2026-04-26 07:33 60.22401 5.24137 1424 ft 141 kts 351°
2026-04-26 07:34 60.23340 5.23823 1232 ft 134 kts 351°
2026-04-26 07:34 60.24253 5.23517 1037 ft 132 kts 351°
2026-04-26 07:34 60.25162 5.23213 838 ft 133 kts 351°
2026-04-26 07:34 60.26071 5.22909 654 ft 132 kts 350°
2026-04-26 07:35 60.26966 5.22609 469 ft 133 kts 351°
2026-04-26 07:35 60.27891 5.22299 286 ft 134 kts 350°
2026-04-26 07:35 60.28795 5.22000 165 ft 121 kts 350°
2026-04-26 07:35 60.29492 5.21764 151 ft 77 kts 351°
2026-04-26 07:36 60.29873 5.21637 151 ft 42 kts 351°
2026-04-26 07:36 60.30021 5.21627 158 ft 15 kts 42°
2026-04-26 07:36 60.30042 5.21838 160 ft 17 kts 102°
2026-04-26 07:36 60.29927 5.21942 155 ft 22 kts 173°
2026-04-26 07:37 60.29756 5.21995 148 ft 28 kts 171°
2026-04-26 07:37 60.29564 5.22061 154 ft 28 kts 170°
2026-04-26 07:37 60.29369 5.22128 161 ft 28 kts 170°
2026-04-26 07:37 60.29176 5.22195 171 ft 28 kts 170°
2026-04-26 07:38 60.29010 5.22251 174 ft 18 kts 171°
2026-04-26 07:38 60.28946 5.22353 175 ft 13 kts 63°
2026-04-26 07:38 60.29026 5.22407 176 ft 12 kts 46°
2026-04-26 07:38 60.29043 5.22554 176 ft 10 kts 89°
2026-04-26 07:39 60.29005 5.22626 175 ft 5 kts 158°
2026-04-26 07:39 60.28982 5.22645 175 ft 1 kts 158°